星链-32830 (STARLINK-32830)

导读

STARLINK-32830是美国SpaceX公司星链(Starlink)星座的一员,于2025年2月18日发射入轨。星链项目旨在搭建全球低轨卫星互联网,为地面偏远地区提供高速宽带服务。该卫星运行于近地轨道,采用平板设计搭配霍尔推进系统,具备自主避撞能力,服役结束后会主动离轨并在大气层焚毁。作为星链万颗星座组网计划的组成部分,它进一步扩充了星链全球覆盖的卫星规模,巩固了SpaceX在低轨卫星通信领域的领先优势。

Basic Information
目录编号:
63034
目录名称:
STARLINK-32830
国际标识:
2025-034F
轨道中心:
EARTH
卫星名称:
星链-32830
卫星全名:
星链-32830 (STARLINK-32830)
卫星状态:
在轨 (已飞行563 天)
发射日期:
2025-02-18 UTC
国别 :
美国 (US)
星等 :
--
Orbit Information
数据来源 国际轨道数据
星历时间: 2026-09-04T10:44:53+0800
6小时前
查看轨道信息
半长轴: 6848.858km
偏心率: 0.0001649
轨道倾角: 53.158°
近地点辐角 81.519°
升交点赤经 148.002°
平近点角 278.600°
近地点: 469.591km
远地点: 471.851km
周期: 94.013分钟
每日圈数: 15.317065
Detailed Information
固有亮度:
5
最大亮度:
2.5
卫星平台:
Starlink V1.0
覆盖范围:
全球
运营商:
太空探索技术公司
运营商所在国:
美国
制造商(研发单位):
太空探索技术公司
制造商所在国:
美国
使用方式:
暂无
Satellite Introduction
Starlink 计划是 SpaceX 推出的全球卫星互联网项目,通过发射低轨道卫星,为全球尤其是偏远地区提供高速、低延迟的互联网服务。自 2019 年起,Starlink 已部署数千颗卫星,旨在缩小全球数字鸿沟,推动互联网普及。该项目还为军事、航空等行业提供通信支持,带来广泛经济效益。
2D Orbit Map
3D Orbit Map
Orbit Altitude Analysis Chart
Orbit Inclination Analysis Chart
Orbit Comprehensive Analysis Chart
View Comprehensive Chart
Conjunction Data List
Event ID Objects TCA Miss Dist (km) Collision Risk Probability Collision Risk Index (CRI) Action
CDM_260904-053706-240006-303421
XCUBE-1 (62400)
2026-09-04T
05:37:48+0000
0.459 km
远距离
1.587877E-4 高风险 0.79
CDM_260904-080205-099306-303421
2026-09-04T
08:02:48+0000
0.700 km
远距离
8.442047E-5 中风险 0.74
CDM_260904-140505-634406-303421
2026-09-04T
14:05:48+0000
2.458 km
极远距离
1.584024E-6 低风险 0.39